WAT4855 PABR-PASC

Flight info

Callsign WAT4855
Flight time 0h 38m
Altitude 25000
Route BRW Q48 SCC
Aircraft B738/M-SDE2E3FGHIRWXY/LB1

Departure

Time 2026-04-20 16:26
Airport Wiley Post Will Rogers Memorial Airport (PABR)

Arrival

Time 2026-04-20 17:04
Airport Deadhorse Airport (PASC)
Time Latitude Longitude Altitude Speed Heading
2026-04-20 15:51 71.28722 -156.78234 50 ft 0 kts 34°
2026-04-20 16:17 71.28707 -156.78261 55 ft 4 kts 359°
2026-04-20 16:17 71.28692 -156.78233 51 ft 4 kts 280°
2026-04-20 16:17 71.28691 -156.78192 53 ft 1 kts 269°
2026-04-20 16:18 71.28691 -156.78188 53 ft 0 kts 269°
2026-04-20 16:21 71.28691 -156.78190 53 ft 1 kts 269°
2026-04-20 16:21 71.28690 -156.78297 56 ft 10 kts 268°
2026-04-20 16:22 71.28682 -156.78562 56 ft 13 kts 256°
2026-04-20 16:22 71.28658 -156.78825 56 ft 12 kts 255°
2026-04-20 16:22 71.28636 -156.79083 60 ft 12 kts 254°
2026-04-20 16:22 71.28604 -156.79314 61 ft 12 kts 219°
2026-04-20 16:23 71.28550 -156.79209 57 ft 12 kts 101°
2026-04-20 16:23 71.28548 -156.78919 60 ft 18 kts 90°
2026-04-20 16:23 71.28548 -156.78406 55 ft 29 kts 90°
2026-04-20 16:23 71.28549 -156.77725 57 ft 34 kts 90°
2026-04-20 16:24 71.28549 -156.76916 52 ft 41 kts 90°
2026-04-20 16:24 71.28549 -156.75980 51 ft 45 kts 90°
2026-04-20 16:24 71.28548 -156.74962 45 ft 47 kts 90°
2026-04-20 16:24 71.28549 -156.74215 45 ft 14 kts 86°
2026-04-20 16:25 71.28582 -156.73974 45 ft 9 kts 68°
2026-04-20 16:25 71.28554 -156.73830 42 ft 6 kts 170°
2026-04-20 16:25 71.28545 -156.73901 43 ft 4 kts 266°
2026-04-20 16:25 71.28549 -156.74214 45 ft 43 kts 272°
2026-04-20 16:26 71.28549 -156.75949 50 ft 114 kts 270°
2026-04-20 16:26 71.28567 -156.78967 235 ft 152 kts 269°
2026-04-20 16:26 71.28594 -156.82342 953 ft 164 kts 271°
2026-04-20 16:26 71.28612 -156.86066 1699 ft 179 kts 264°
2026-04-20 16:27 71.28113 -156.89858 2176 ft 206 kts 228°
2026-04-20 16:27 71.26857 -156.92297 2549 ft 223 kts 191°
2026-04-20 16:27 71.25317 -156.91973 3183 ft 228 kts 157°
2026-04-20 16:27 71.24077 -156.88818 3717 ft 238 kts 120°
2026-04-20 16:28 71.23442 -156.84035 4615 ft 240 kts 106°
2026-04-20 16:28 71.22969 -156.79039 5588 ft 243 kts 105°
2026-04-20 16:28 71.22507 -156.73943 6480 ft 248 kts 105°
2026-04-20 16:28 71.22033 -156.68729 7344 ft 252 kts 105°
2026-04-20 16:29 71.21548 -156.63460 8231 ft 257 kts 105°
2026-04-20 16:29 71.21022 -156.58117 9066 ft 261 kts 109°
2026-04-20 16:29 71.20392 -156.52785 9932 ft 266 kts 110°
2026-04-20 16:29 71.19729 -156.47390 10714 ft 269 kts 111°
2026-04-20 16:30 71.19041 -156.41814 11132 ft 288 kts 111°
2026-04-20 16:30 71.18297 -156.35771 11344 ft 312 kts 110°
2026-04-20 16:30 71.17498 -156.29269 11621 ft 333 kts 110°
2026-04-20 16:30 71.16663 -156.22450 12251 ft 342 kts 110°
2026-04-20 16:31 71.15823 -156.15596 13047 ft 347 kts 110°
2026-04-20 16:31 71.14963 -156.08577 13854 ft 351 kts 110°
2026-04-20 16:31 71.14093 -156.01494 14571 ft 355 kts 111°
2026-04-20 16:31 71.13211 -155.94334 15301 ft 358 kts 111°
2026-04-20 16:32 71.12318 -155.87105 16023 ft 362 kts 111°
2026-04-20 16:32 71.11413 -155.79803 16733 ft 366 kts 111°
2026-04-20 16:32 71.10495 -155.72428 17441 ft 370 kts 112°
2026-04-20 16:32 71.09563 -155.64972 18138 ft 374 kts 112°
2026-04-20 16:33 71.08619 -155.57445 18763 ft 378 kts 112°
2026-04-20 16:33 71.07663 -155.49850 19355 ft 382 kts 112°
2026-04-20 16:33 71.06706 -155.42280 20298 ft 374 kts 112°
2026-04-20 16:33 71.05771 -155.34908 21384 ft 365 kts 113°
2026-04-20 16:34 71.04855 -155.27718 22454 ft 355 kts 113°
2026-04-20 16:34 71.03961 -155.20723 23260 ft 349 kts 113°
2026-04-20 16:34 71.03064 -155.13745 23802 ft 353 kts 113°
2026-04-20 16:34 71.02154 -155.06697 24297 ft 356 kts 114°
2026-04-20 16:35 71.01226 -154.99544 24571 ft 366 kts 114°
2026-04-20 16:35 71.00268 -154.92190 24842 ft 375 kts 114°
2026-04-20 16:35 70.99285 -154.84670 25026 ft 385 kts 114°
2026-04-20 16:35 70.98266 -154.76908 25008 ft 399 kts 114°
2026-04-20 16:36 70.97211 -154.68900 25024 ft 411 kts 114°
2026-04-20 16:36 70.96129 -154.60718 25025 ft 415 kts 114°
2026-04-20 16:36 70.95063 -154.52673 25012 ft 412 kts 114°
2026-04-20 16:36 70.93985 -154.44574 25009 ft 411 kts 114°
2026-04-20 16:37 70.92904 -154.36495 25005 ft 410 kts 114°
2026-04-20 16:37 70.91822 -154.28447 25006 ft 409 kts 114°
2026-04-20 16:37 70.90736 -154.20410 25015 ft 409 kts 114°
2026-04-20 16:37 70.89648 -154.12388 25014 ft 410 kts 114°
2026-04-20 16:38 70.88553 -154.04353 25013 ft 410 kts 114°
2026-04-20 16:38 70.87453 -153.96320 25011 ft 411 kts 114°
2026-04-20 16:38 70.86347 -153.88274 25013 ft 412 kts 114°
2026-04-20 16:38 70.85236 -153.80229 25019 ft 416 kts 114°
2026-04-20 16:39 70.84092 -153.71985 25022 ft 430 kts 115°
2026-04-20 16:39 70.82903 -153.63459 25033 ft 445 kts 115°
2026-04-20 16:39 70.81672 -153.54672 25031 ft 458 kts 115°
2026-04-20 16:39 70.80407 -153.45678 25026 ft 468 kts 115°
2026-04-20 16:40 70.79111 -153.36498 25020 ft 475 kts 115°
2026-04-20 16:40 70.77820 -153.27384 24988 ft 460 kts 115°
2026-04-20 16:40 70.76584 -153.18677 24990 ft 439 kts 115°
2026-04-20 16:40 70.75395 -153.10351 24896 ft 424 kts 115°
2026-04-20 16:41 70.74230 -153.02239 24582 ft 414 kts 115°
2026-04-20 16:41 70.73099 -152.94409 24180 ft 408 kts 115°
2026-04-20 16:41 70.71966 -152.86600 23780 ft 403 kts 115°
2026-04-20 16:41 70.70843 -152.78892 23288 ft 398 kts 115°
2026-04-20 16:42 70.69732 -152.71301 22879 ft 392 kts 115°
2026-04-20 16:42 70.68637 -152.63837 22473 ft 386 kts 115°
2026-04-20 16:42 70.67554 -152.56492 22076 ft 380 kts 115°
2026-04-20 16:42 70.66484 -152.49254 21686 ft 375 kts 115°
2026-04-20 16:43 70.65425 -152.42119 21294 ft 370 kts 116°
2026-04-20 16:43 70.64378 -152.35091 20913 ft 366 kts 116°
2026-04-20 16:43 70.63338 -152.28138 20527 ft 362 kts 116°
2026-04-20 16:43 70.62309 -152.21279 20149 ft 358 kts 116°
2026-04-20 16:44 70.61287 -152.14494 19775 ft 354 kts 116°
2026-04-20 16:44 70.60272 -152.07771 19399 ft 351 kts 116°
2026-04-20 16:44 70.59263 -152.01118 19033 ft 348 kts 116°
2026-04-20 16:44 70.58263 -151.94547 18690 ft 344 kts 116°
2026-04-20 16:45 70.57271 -151.88043 18329 ft 341 kts 116°
2026-04-20 16:45 70.56282 -151.81584 17925 ft 338 kts 116°
2026-04-20 16:45 70.55303 -151.75214 17569 ft 334 kts 116°
2026-04-20 16:45 70.54333 -151.68919 17210 ft 331 kts 116°
2026-04-20 16:46 70.53370 -151.62688 16862 ft 327 kts 116°
2026-04-20 16:46 70.52428 -151.56613 16518 ft 324 kts 116°
2026-04-20 16:46 70.51480 -151.50519 16172 ft 321 kts 116°
2026-04-20 16:46 70.50537 -151.44479 15836 ft 319 kts 115°
2026-04-20 16:47 70.49600 -151.38489 15479 ft 316 kts 116°
2026-04-20 16:47 70.48669 -151.32558 15136 ft 314 kts 116°
2026-04-20 16:47 70.47742 -151.26670 14793 ft 312 kts 115°
2026-04-20 16:47 70.46819 -151.20830 14451 ft 310 kts 115°
2026-04-20 16:48 70.45900 -151.15023 14119 ft 308 kts 115°
2026-04-20 16:48 70.44985 -151.09268 13780 ft 306 kts 115°
2026-04-20 16:48 70.44075 -151.03551 13394 ft 304 kts 115°
2026-04-20 16:48 70.43169 -150.97879 13080 ft 301 kts 115°
2026-04-20 16:49 70.42272 -150.92279 12763 ft 298 kts 115°
2026-04-20 16:49 70.41681 -150.88602 12534 ft 296 kts 115°
2026-04-20 16:49 70.40794 -150.83089 12193 ft 294 kts 115°
2026-04-20 16:49 70.39905 -150.77582 11856 ft 296 kts 115°
2026-04-20 16:50 70.39007 -150.72033 11516 ft 299 kts 115°
2026-04-20 16:50 70.37798 -150.64582 11062 ft 303 kts 115°
2026-04-20 16:50 70.37175 -150.60755 10837 ft 304 kts 115°
2026-04-20 16:50 70.36256 -150.55126 10503 ft 301 kts 115°
2026-04-20 16:51 70.35356 -150.49626 10390 ft 291 kts 115°
2026-04-20 16:51 70.34483 -150.44305 10254 ft 282 kts 115°
2026-04-20 16:51 70.33646 -150.39219 10141 ft 274 kts 115°
2026-04-20 16:51 70.32821 -150.34220 10025 ft 266 kts 115°
2026-04-20 16:52 70.32014 -150.29337 9776 ft 263 kts 115°
2026-04-20 16:52 70.31214 -150.24509 9530 ft 259 kts 115°
2026-04-20 16:52 70.30421 -150.19735 9253 ft 257 kts 115°
2026-04-20 16:52 70.29635 -150.15014 9003 ft 254 kts 115°
2026-04-20 16:53 70.28855 -150.10339 8751 ft 251 kts 115°
2026-04-20 16:53 70.28083 -150.05724 8478 ft 249 kts 115°
2026-04-20 16:53 70.27316 -150.01149 8242 ft 247 kts 115°
2026-04-20 16:53 70.26555 -149.96619 7981 ft 245 kts 115°
2026-04-20 16:54 70.25800 -149.92137 7740 ft 243 kts 115°
2026-04-20 16:54 70.25049 -149.87684 7486 ft 241 kts 115°
2026-04-20 16:54 70.24302 -149.83268 7247 ft 239 kts 115°
2026-04-20 16:54 70.23559 -149.78887 7001 ft 237 kts 115°
2026-04-20 16:55 70.22822 -149.74544 6757 ft 236 kts 115°
2026-04-20 16:55 70.22088 -149.70234 6516 ft 234 kts 115°
2026-04-20 16:55 70.21360 -149.65964 6282 ft 232 kts 115°
2026-04-20 16:55 70.20636 -149.61734 6052 ft 229 kts 115°
2026-04-20 16:56 70.19921 -149.57558 5822 ft 227 kts 115°
2026-04-20 16:56 70.19215 -149.53443 5604 ft 224 kts 115°
2026-04-20 16:56 70.18515 -149.49370 5380 ft 221 kts 115°
2026-04-20 16:56 70.17824 -149.45360 5179 ft 218 kts 115°
2026-04-20 16:57 70.17144 -149.41418 5026 ft 214 kts 115°
2026-04-20 16:57 70.16462 -149.37458 4817 ft 220 kts 115°
2026-04-20 16:57 70.15757 -149.33381 4576 ft 227 kts 115°
2026-04-20 16:57 70.15044 -149.29280 4333 ft 227 kts 115°
2026-04-20 16:58 70.14328 -149.25178 4095 ft 224 kts 115°
2026-04-20 16:58 70.13619 -149.21119 3851 ft 222 kts 114°
2026-04-20 16:58 70.13171 -149.16883 3604 ft 216 kts 86°
2026-04-20 16:58 70.13593 -149.12803 3576 ft 205 kts 69°
2026-04-20 16:59 70.13989 -149.08832 3463 ft 199 kts 77°
2026-04-20 16:59 70.14304 -149.04945 3364 ft 192 kts 76°
2026-04-20 16:59 70.14621 -149.01181 3289 ft 189 kts 76°
2026-04-20 16:59 70.14946 -148.97416 3160 ft 192 kts 76°
2026-04-20 17:00 70.15596 -148.90000 2999 ft 179 kts 76°
2026-04-20 17:00 70.15896 -148.86589 2981 ft 166 kts 76°
2026-04-20 17:00 70.16179 -148.83375 2821 ft 159 kts 76°
2026-04-20 17:01 70.16455 -148.80258 2593 ft 155 kts 76°
2026-04-20 17:01 70.16723 -148.77226 2352 ft 151 kts 76°
2026-04-20 17:01 70.16984 -148.74285 2160 ft 147 kts 76°
2026-04-20 17:01 70.17248 -148.71314 1904 ft 152 kts 76°
2026-04-20 17:02 70.17516 -148.68314 1660 ft 149 kts 76°
2026-04-20 17:02 70.17767 -148.65496 1371 ft 137 kts 75°
2026-04-20 17:02 70.18003 -148.62864 1135 ft 130 kts 75°
2026-04-20 17:02 70.18233 -148.60292 937 ft 130 kts 75°
2026-04-20 17:03 70.18467 -148.57684 712 ft 133 kts 75°
2026-04-20 17:03 70.18699 -148.55108 536 ft 131 kts 75°
2026-04-20 17:03 70.18928 -148.52457 315 ft 135 kts 75°
2026-04-20 17:03 70.19173 -148.49799 177 ft 133 kts 74°
2026-04-20 17:04 70.19409 -148.47238 65 ft 120 kts 74°
2026-04-20 17:04 70.19584 -148.45317 56 ft 67 kts 76°
2026-04-20 17:04 70.19648 -148.44600 61 ft 12 kts 76°
2026-04-20 17:04 70.19670 -148.44367 62 ft 12 kts 75°
2026-04-20 17:05 70.19698 -148.44148 59 ft 12 kts 45°
2026-04-20 17:05 70.19776 -148.44112 57 ft 12 kts 351°
2026-04-20 17:05 70.19848 -148.44208 59 ft 12 kts 308°
2026-04-20 17:05 70.19855 -148.44426 61 ft 12 kts 322°
2026-04-20 17:06 70.19933 -148.44489 62 ft 11 kts 347°
2026-04-20 17:06 70.19961 -148.44657 61 ft 11 kts 252°
2026-04-20 17:06 70.19913 -148.44830 59 ft 11 kts 218°
2026-04-20 17:06 70.19856 -148.44976 59 ft 11 kts 236°
2026-04-20 17:07 70.19836 -148.45181 65 ft 10 kts 260°
2026-04-20 17:07 70.19834 -148.45390 64 ft 10 kts 262°
2026-04-20 17:07 70.19815 -148.45586 56 ft 10 kts 257°
2026-04-20 17:07 70.19836 -148.45763 59 ft 10 kts 327°
2026-04-20 17:08 70.19871 -148.45653 60 ft 8 kts 81°
2026-04-20 17:08 70.19877 -148.45580 60 ft 2 kts 75°
2026-04-20 17:08 70.19881 -148.45532 64 ft 3 kts 75°
2026-04-20 17:08 70.19881 -148.45527 64 ft 0 kts 75°